[[{"header":{"parameterUnit":"m.s-1","parameterCategory":2,"la1":30.2991,"la2":30.254,"lo1":-89.0895,"lo2":-89.0444,"dy":0.0017,"dx":0.0017,"nx":28,"ny":28,"refTime":"2024-07-06T09:00:00:Z","depth":"0","parameterNumber":2,"parameterNumberName":"U-component_of_CURRENTS"},"data":[0,0,0,0,0,0,0,0,0,0,0,0,0,0,0,0,0,0,0,0,0,0,0,0,0,0,0,0,0,0,0,0,0,0,0,0,0,0,0,0,0,0,0,0,0,0,0,0,0,0,0,0,0,0,0,0,0,0,-0.3426,-0.3427,0,-0.3421,-0.342,-0.3419,-0.3366,-0.3366,-0.3366,-0.3366,-0.322,-0.3216,-0.3213,0,0,0,0,0,0,0,0,0,0,0,0,0,-0.325,-0.3253,-0.3426,-0.3427,-0.3428,-0.3421,-0.342,-0.3419,-0.3367,-0.3366,-0.3366,-0.3366,-0.3221,-0.3217,-0.3212,0,0,0,0,0,0,0,0,0,0,0,0,0,-0.3283,-0.3254,-0.3426,-0.341,-0.3409,-0.3422,-0.342,-0.3418,-0.3367,-0.3366,-0.3366,-0.3366,-0.3223,-0.3217,-0.3212,-0.3184,0,0,-0.3195,-0.3193,0,0,0,0,0,0,0,0,-0.3281,-0.3288,-0.3411,-0.3411,-0.3411,-0.3405,-0.3305,-0.3337,-0.3367,-0.337,-0.3366,-0.3365,-0.3277,-0.3267,-0.3251,-0.3178,-0.3171,-0.3194,-0.3191,-0.3189,-0.3187,0,0,0,0,0,0,0,-0.3279,-0.3287,-0.3412,-0.3413,-0.3412,-0.3356,-0.336,-0.331,-0.3313,-0.337,-0.3369,-0.3388,-0.3274,-0.3257,-0.3247,-0.3169,-0.3195,-0.319,-0.3186,-0.3184,-0.3123,-0.3124,0,0,0,0,0,0,-0.3312,-0.3286,-0.3412,-0.3413,-0.3357,-0.3361,-0.3365,-0.3397,-0.3317,-0.3309,-0.3388,-0.3385,-0.3267,-0.3254,-0.3242,-0.3265,-0.3189,-0.3184,-0.318,-0.3121,-0.3123,-0.3125,0,0,0,0,0,0,-0.3309,-0.3324,-0.3413,-0.3357,-0.3366,-0.3367,-0.3401,-0.3397,-0.339,-0.3335,-0.3321,-0.3387,-0.3266,-0.325,-0.3221,-0.3256,-0.3181,-0.3176,-0.3119,-0.3121,-0.3124,-0.3271,0,0,0,0,0,0,-0.3304,-0.3323,-0.3347,-0.3361,-0.3371,-0.3441,-0.3403,-0.3398,-0.3407,-0.3403,-0.3329,-0.3315,-0.3264,-0.323,-0.3215,-0.3247,-0.3172,-0.3117,-0.312,-0.3123,-0.3264,-0.3278,-0.329,0,0,0,0,0,-0.3297,-0.3362,-0.3348,-0.3364,-0.3409,-0.3444,-0.3442,-0.3431,-0.3408,-0.3417,-0.3371,-0.3318,-0.324,-0.3226,-0.3209,-0.324,-0.3115,-0.3119,-0.3123,-0.3258,-0.3275,-0.329,0,0,0,0,0,0,-0.3299,-0.3364,-0.3349,-0.3428,-0.3437,-0.344,-0.3456,-0.3441,-0.341,-0.3398,-0.333,-0.3314,-0.33,-0.3251,-0.3238,-0.3233,-0.3172,-0.3172,-0.328,-0.3296,-0.3309,-0.3308,-0.3167,0,0,0,0,0,-0.3312,-0.3374,-0.3401,-0.3457,-0.3466,-0.3452,-0.3461,-0.3454,-0.344,-0.3426,-0.3375,-0.3327,-0.3301,-0.3284,-0.3239,-0.3233,-0.3179,-0.3245,-0.3258,-0.327,-0.3258,-0.3231,-0.3241,-0.3137,-0.3137,-0.3137,0,0,-0.3328,-0.3372,-0.3404,-0.346,-0.3458,-0.3497,-0.3454,-0.3482,-0.3505,-0.3413,-0.341,-0.336,-0.3306,-0.3305,-0.3296,-0.3271,-0.3274,-0.3274,-0.3285,-0.3266,-0.3236,-0.3246,-0.3255,-0.314,-0.3139,-0.3139,0,0,-0.3395,-0.3423,-0.3487,-0.351,-0.3538,-0.3533,-0.3548,-0.3546,-0.3532,-0.3528,-0.3476,-0.3461,-0.3398,-0.3388,-0.3371,-0.343,-0.3337,-0.3409,-0.3481,-0.3457,-0.3465,-0.3471,-0.3429,-0.3431,-0.3425,-0.3426,-0.3426,0,-0.3391,-0.3488,-0.3505,-0.3567,-0.358,-0.3559,-0.3596,-0.3604,-0.3589,-0.3564,-0.3545,-0.3473,-0.3446,-0.3453,-0.3487,-0.3462,-0.341,-0.343,-0.3475,-0.348,-0.3484,-0.3438,-0.3438,-0.3433,-0.3432,-0.3431,-0.3431,0,-0.3496,-0.3569,-0.3608,-0.3674,-0.3687,-0.3723,-0.373,-0.3722,-0.369,-0.3676,-0.3648,-0.3614,-0.3565,-0.3578,-0.3554,-0.3575,-0.3517,-0.3489,-0.3437,-0.3503,-0.3451,-0.3448,-0.3444,-0.3441,-0.3439,-0.3437,0,0,-0.3467,-0.3644,-0.365,-0.3673,-0.3736,-0.3736,-0.3784,-0.3781,-0.377,-0.3763,-0.3729,-0.3748,-0.3698,-0.3678,-0.365,-0.3654,-0.3673,-0.3592,-0.3587,-0.3553,-0.359,-0.3292,-0.3259,-0.3641,-0.3641,-0.3641,-0.3547,0,-0.351,-0.3644,-0.372,-0.3787,-0.382,-0.3823,-0.3855,-0.3849,-0.3823,-0.379,-0.377,-0.3731,-0.3751,-0.3709,-0.3733,-0.3657,-0.3667,-0.3698,-0.3526,-0.352,-0.325,-0.3246,-0.312,-0.3,-0.3543,-0.3543,-0.3542,0,-0.355,-0.3628,-0.3706,-0.3796,-0.3803,-0.3833,-0.3795,-0.3832,-0.382,-0.3792,-0.3776,-0.3735,-0.3742,-0.3733,-0.3699,-0.3705,-0.3668,-0.363,-0.3624,-0.3282,-0.3213,-0.3017,-0.2973,-0.2969,-0.3536,-0.3537,-0.3537,0,-0.3413,-0.3603,-0.3641,-0.3672,-0.3771,-0.3762,-0.3796,-0.3798,-0.3792,-0.3767,-0.3722,-0.3735,-0.3677,-0.3673,-0.3595,-0.3646,-0.35,-0.3564,-0.3272,-0.3252,-0.3072,-0.3031,-0.2996,-0.3544,-0.3544,-0.3545,-0.3545,0,-0.3361,-0.3388,-0.3585,-0.3562,-0.3568,-0.368,-0.3662,-0.3668,-0.3708,-0.3683,-0.3701,-0.3662,-0.3652,-0.3563,-0.3557,-0.3343,-0.3472,-0.3252,-0.3192,-0.3116,-0.3082,-0.3007,-0.3078,-0.3541,-0.3542,-0.3543,-0.3543,0,-0.312,-0.3286,-0.3302,-0.3433,-0.3475,-0.3435,-0.3558,-0.357,-0.3618,-0.3573,-0.3554,-0.3564,-0.343,-0.3357,-0.3285,-0.3216,-0.3018,-0.2996,-0.2873,-0.2796,-0.2503,-0.2587,-0.2434,-0.2365,-0.2689,-0.2681,-0.2674,0,-0.3001,-0.2998,-0.3116,-0.3138,-0.3174,-0.323,-0.3281,-0.3432,-0.3469,-0.3515,-0.347,-0.3345,-0.3233,-0.296,-0.2769,-0.2582,-0.2694,-0.2368,-0.2448,-0.2418,-0.2474,-0.2563,-0.253,-0.2313,-0.2304,-0.2296,-0.229,0,-0.2689,-0.2729,-0.2719,-0.2819,-0.2873,-0.2982,-0.3092,-0.3129,-0.3303,-0.3287,-0.3246,-0.3168,-0.2852,-0.255,-0.2227,-0.2156,-0.2296,-0.2195,-0.2238,-0.2195,-0.2226,-0.2151,-0.2454,-0.2222,-0.2229,-0.2234,-0.2237,-0.224,-0.2404,-0.2338,-0.2399,-0.2458,-0.2583,-0.2737,-0.2748,-0.2912,-0.2957,-0.2872,-0.295,-0.2627,-0.238,-0.1895,-0.1805,-0.1555,-0.1743,-0.1569,-0.1686,-0.1786,-0.1666,-0.175,-0.1381,-0.1383,-0.1384,-0.1386,-0.1387,0,-0.2099,-0.208,-0.2097,-0.2194,-0.2281,-0.2452,-0.2623,-0.2602,-0.2597,-0.2435,-0.2309,-0.1808,-0.1606,-0.142,-0.1225,-0.1131,-0.1212,-0.1136,-0.1359,-0.1358,-0.1488,-0.1411,-0.0939,-0.0939,-0.0939,-0.0939,-0.0939,-0.0939,-0.1921,-0.1824,-0.1862,-0.1894,-0.2,-0.2037,-0.2099,-0.2075,-0.195,-0.156,-0.114,-0.0887,-0.092,-0.1116,-0.1103,-0.1047,-0.1133,-0.1028,-0.1112,-0.1349,-0.1405,-0.1459,-0.1402,-0.0936,-0.0936,-0.0943,-0.0944,-0.0945]},{"header":{"parameterUnit":"m.s-1","parameterCategory":2,"la1":30.2991,"la2":30.254,"lo1":-89.0895,"lo2":-89.0444,"dy":0.0017,"dx":0.0017,"nx":28,"ny":28,"refTime":"2024-07-06T09:00:00:Z","depth":"0","parameterNumber":3,"parameterNumberName":"V-component_of_CURRENTS"},"data":[0,0,0,0,0,0,0,0,0,0,0,0,0,0,0,0,0,0,0,0,0,0,0,0,0,0,0,0,0,0,0,0,0,0,0,0,0,0,0,0,0,0,0,0,0,0,0,0,0,0,0,0,0,0,0,0,0,0,-0.0353,-0.0352,0,-0.0195,-0.0193,-0.0191,-0.0087,-0.0087,-0.0086,-0.0085,0.0075,0.0078,0.0082,0,0,0,0,0,0,0,0,0,0,0,0,0,-0.0514,-0.0512,-0.0354,-0.0352,-0.035,-0.0195,-0.0193,-0.0191,-0.0087,-0.0087,-0.0086,-0.0085,0.0074,0.0078,0.0082,0,0,0,0,0,0,0,0,0,0,0,0,0,-0.0409,-0.0512,-0.0354,-0.028,-0.0271,-0.0196,-0.0193,-0.019,-0.0087,-0.0086,-0.0086,-0.0085,0.0072,0.0077,0.0083,0.0097,0,0,0.01,0.0102,0,0,0,0,0,0,0,0,-0.0415,-0.0403,-0.0292,-0.0285,-0.0275,-0.016,-0.0191,-0.0094,-0.0088,-0.0157,-0.0085,-0.0084,-0.0005,0.0007,0.0035,0.0104,0.0111,0.01,0.0103,0.0106,0.0107,0,0,0,0,0,0,0,-0.0423,-0.0409,-0.029,-0.029,-0.028,-0.0236,-0.0221,-0.0172,-0.0088,-0.0151,-0.0143,-0.0126,0.0,0.003,0.004,0.0114,0.01,0.0105,0.0108,0.011,0.0169,0.0168,0,0,0,0,0,0,-0.0446,-0.0416,-0.0295,-0.0286,-0.0345,-0.0235,-0.0217,-0.0198,-0.0088,-0.0071,-0.0127,-0.0122,0.002,0.0033,0.0046,0.004,0.0106,0.0111,0.0114,0.0171,0.0169,0.0167,0,0,0,0,0,0,-0.045,-0.0437,-0.0302,-0.0348,-0.0328,-0.0233,-0.0212,-0.0195,-0.0162,-0.007,-0.0052,-0.0112,0.0021,0.0038,0.0074,0.0048,0.0113,0.0118,0.0173,0.017,0.0168,0.0047,0,0,0,0,0,0,-0.0456,-0.0439,-0.044,-0.0349,-0.0326,-0.0269,-0.0213,-0.0193,-0.0154,-0.0145,-0.0052,-0.0035,0.0023,0.0065,0.0079,0.0057,0.0122,0.0175,0.0172,0.0169,0.0053,0.0041,0.003,0,0,0,0,0,-0.0462,-0.0461,-0.0441,-0.0427,-0.0328,-0.027,-0.0254,-0.0183,-0.0155,-0.0149,-0.0093,-0.0038,0.0055,0.0068,0.0086,0.0064,0.0177,0.0173,0.0169,0.0058,0.0043,0.003,0,0,0,0,0,0,-0.0527,-0.0448,-0.0424,-0.0399,-0.0348,-0.0253,-0.0237,-0.0193,-0.0142,-0.0135,-0.0051,-0.0032,-0.0013,0.0038,0.0051,0.0068,0.0121,0.012,0.0031,0.0017,0.0006,-0.004,0.0127,0,0,0,0,0,-0.0546,-0.0526,-0.0449,-0.0433,-0.041,-0.0329,-0.0299,-0.0254,-0.0193,-0.0167,-0.0106,-0.0052,-0.0017,0.001,0.0053,0.0069,0.01,0.0062,0.005,0.004,0.0012,-0.0017,-0.0035,0.0154,0.0154,0.0154,0,0,-0.0568,-0.0522,-0.0512,-0.0446,-0.0399,-0.0385,-0.0308,-0.0269,-0.0267,-0.0161,-0.0145,-0.0088,-0.0023,-0.0009,0.0003,0.0032,0.0019,0.0035,0.0026,0.0004,-0.0023,-0.0042,-0.0059,0.0152,0.0152,0.0153,0,0,-0.0608,-0.0563,-0.0565,-0.0531,-0.0471,-0.0425,-0.0422,-0.0341,-0.0315,-0.0288,-0.0226,-0.0195,-0.012,-0.0092,-0.0065,-0.0118,-0.0046,-0.0097,-0.0186,-0.0215,-0.0231,-0.0245,-0.0162,-0.0168,-0.01,-0.0101,-0.0101,0,-0.0643,-0.0631,-0.056,-0.0556,-0.0541,-0.0455,-0.0466,-0.0431,-0.0354,-0.0358,-0.0303,-0.0249,-0.0168,-0.019,-0.0189,-0.0146,-0.0118,-0.0135,-0.0232,-0.0246,-0.0259,-0.017,-0.0175,-0.0107,-0.0106,-0.0105,-0.0105,0,-0.0688,-0.068,-0.0678,-0.0653,-0.063,-0.0621,-0.0568,-0.0558,-0.0514,-0.0482,-0.0488,-0.04,-0.0375,-0.0337,-0.0261,-0.0318,-0.0249,-0.0247,-0.0201,-0.0286,-0.0185,-0.0188,-0.0116,-0.0114,-0.0112,-0.011,0,0,-0.076,-0.0722,-0.0723,-0.0744,-0.0682,-0.068,-0.0685,-0.068,-0.0729,-0.0653,-0.071,-0.0618,-0.0581,-0.0551,-0.0475,-0.0473,-0.0475,-0.0395,-0.0394,-0.0317,-0.0467,-0.0252,-0.0232,-0.0505,-0.0508,-0.0511,-0.0336,0,-0.0823,-0.0851,-0.081,-0.0861,-0.0874,-0.0819,-0.0851,-0.084,-0.0819,-0.0854,-0.0784,-0.0798,-0.0664,-0.0662,-0.0643,-0.0547,-0.0502,-0.0517,-0.0393,-0.0387,-0.0193,-0.0237,-0.0175,-0.0003,-0.0338,-0.0339,-0.0339,0,-0.0881,-0.0897,-0.094,-0.0989,-0.0996,-0.102,-0.1077,-0.1096,-0.1108,-0.1097,-0.1094,-0.1037,-0.1005,-0.0893,-0.0776,-0.0798,-0.0635,-0.0537,-0.0529,-0.0301,-0.0181,0.0014,0.0005,0.0174,-0.0343,-0.0343,-0.0343,0,-0.0957,-0.1001,-0.1046,-0.105,-0.1077,-0.1116,-0.1149,-0.1172,-0.1232,-0.1261,-0.1303,-0.1262,-0.1235,-0.1111,-0.0812,-0.0836,-0.0646,-0.0663,-0.0301,-0.028,-0.0187,-0.0152,-0.0033,-0.0579,-0.0579,-0.0579,-0.058,0,-0.1016,-0.1064,-0.1099,-0.1115,-0.1237,-0.1224,-0.136,-0.1373,-0.1444,-0.1529,-0.1446,-0.1478,-0.1298,-0.1133,-0.0895,-0.0558,-0.0698,-0.0317,-0.0247,-0.0212,-0.0184,0.0001,0.0067,-0.0573,-0.0574,-0.0575,-0.0577,0,-0.1044,-0.1062,-0.1132,-0.1203,-0.1252,-0.1331,-0.1479,-0.1594,-0.1624,-0.173,-0.1745,-0.1658,-0.1414,-0.1121,-0.0853,-0.0632,-0.0209,-0.0174,-0.0063,0.0017,0.0443,0.0501,0.0709,0.0827,0.015,0.0156,0.0161,0,-0.1051,-0.1078,-0.1187,-0.1273,-0.1304,-0.1447,-0.157,-0.166,-0.1771,-0.1816,-0.1871,-0.1666,-0.1428,-0.0899,-0.0494,-0.0013,0.0108,0.03,0.0249,0.0487,0.0598,0.061,0.0691,0.0355,0.0361,0.0366,0.037,0,-0.1047,-0.1073,-0.1118,-0.1307,-0.1447,-0.1642,-0.1805,-0.1904,-0.1998,-0.1969,-0.1875,-0.1671,-0.116,-0.0588,0.0044,0.0289,0.0418,0.0422,0.0568,0.0698,0.0805,0.0948,0.0304,0.0416,0.0411,0.0408,0.0405,0.0404,-0.1028,-0.1067,-0.1149,-0.1327,-0.1541,-0.178,-0.1865,-0.1963,-0.1995,-0.1801,-0.1718,-0.1154,-0.064,0.0259,0.052,0.0989,0.0875,0.1078,0.1117,0.1101,0.1232,0.0774,0.1024,0.1023,0.1022,0.1021,0.102,0,-0.1002,-0.1051,-0.12,-0.1417,-0.1657,-0.177,-0.1989,-0.196,-0.1852,-0.1467,-0.1126,-0.0196,0.0394,0.0868,0.1409,0.1641,0.1614,0.1718,0.1667,0.1706,0.1212,0.1238,0.1664,0.1664,0.1663,0.1663,0.1663,0.1663,-0.0984,-0.1055,-0.1129,-0.1454,-0.164,-0.1844,-0.1915,-0.1774,-0.1486,-0.0657,0.0111,0.0666,0.1137,0.1671,0.2082,0.2127,0.227,0.2273,0.2359,0.1942,0.188,0.1822,0.186,0.2408,0.2409,0.2799,0.2803,0.2806]}],[{"header":{"parameterUnit":"m.s-1","parameterCategory":2,"la1":30.2991,"la2":30.254,"lo1":-89.0895,"lo2":-89.0444,"dy":0.0017,"dx":0.0017,"nx":28,"ny":28,"refTime":"2024-07-06T09:00:00:Z","depth":"2","parameterNumber":2,"parameterNumberName":"U-component_of_CURRENTS"},"data":[0,0,0,0,0,0,0,0,0,0,0,0,0,0,0,0,0,0,0,0,0,0,0,0,0,0,0,0,0,0,0,0,0,0,0,0,0,0,0,0,0,0,0,0,0,0,0,0,0,0,0,0,0,0,0,0,0,0,-0.2402,-0.2402,0,-0.2477,-0.248,-0.2482,-0.2607,-0.2608,-0.2608,-0.2609,-0.2741,-0.2744,-0.2747,0,0,0,0,0,0,0,0,0,0,0,0,0,-0.2317,-0.232,-0.2403,-0.2402,-0.24,-0.2477,-0.248,-0.2483,-0.2607,-0.2608,-0.2608,-0.2609,-0.274,-0.2743,-0.2747,0,0,0,0,0,0,0,0,0,0,0,0,0,-0.2389,-0.2321,-0.2403,-0.2456,-0.246,-0.2476,-0.248,-0.2484,-0.2607,-0.2608,-0.2608,-0.2609,-0.2738,-0.2743,-0.2748,-0.2766,0,0,-0.2762,-0.2764,0,0,0,0,0,0,0,0,-0.2385,-0.2395,-0.2449,-0.2452,-0.2457,-0.2515,-0.2497,-0.2573,-0.2607,-0.2574,-0.2609,-0.2609,-0.2656,-0.2668,-0.271,-0.2772,-0.2778,-0.2763,-0.2766,-0.2768,-0.2769,0,0,0,0,0,0,0,-0.238,-0.2392,-0.2454,-0.2448,-0.2452,-0.2457,-0.2471,-0.2513,-0.2629,-0.2577,-0.2581,-0.2555,-0.2662,-0.2705,-0.2714,-0.278,-0.2763,-0.2767,-0.277,-0.2772,-0.2797,-0.2795,0,0,0,0,0,0,-0.2331,-0.2388,-0.2451,-0.2454,-0.2398,-0.2457,-0.2473,-0.2513,-0.2627,-0.2638,-0.2554,-0.256,-0.2697,-0.2708,-0.2719,-0.2727,-0.2768,-0.2772,-0.2775,-0.2799,-0.2796,-0.2794,0,0,0,0,0,0,-0.233,-0.2339,-0.2448,-0.2401,-0.2413,-0.2456,-0.25,-0.2514,-0.2572,-0.2605,-0.2623,-0.2596,-0.2698,-0.2712,-0.2774,-0.2734,-0.2774,-0.2778,-0.2801,-0.2798,-0.2795,-0.2756,0,0,0,0,0,0,-0.2329,-0.234,-0.2365,-0.24,-0.2413,-0.2463,-0.2498,-0.2514,-0.2543,-0.2553,-0.2646,-0.2659,-0.2699,-0.2766,-0.2778,-0.2741,-0.2782,-0.2804,-0.28,-0.2796,-0.276,-0.2752,-0.2745,0,0,0,0,0,-0.2327,-0.2359,-0.2368,-0.2373,-0.2444,-0.2461,-0.2472,-0.2516,-0.2544,-0.2574,-0.2637,-0.2657,-0.2746,-0.2771,-0.2785,-0.2747,-0.2806,-0.2801,-0.2796,-0.2763,-0.2753,-0.2745,0,0,0,0,0,0,-0.2337,-0.2373,-0.2384,-0.2428,-0.2436,-0.2474,-0.2493,-0.2519,-0.2598,-0.2602,-0.2672,-0.2689,-0.2732,-0.2735,-0.2761,-0.2733,-0.2761,-0.2759,-0.2731,-0.2722,-0.2714,-0.2686,-0.2786,0,0,0,0,0,-0.2341,-0.2376,-0.2394,-0.242,-0.243,-0.2465,-0.2479,-0.2493,-0.2542,-0.2581,-0.2661,-0.2697,-0.2718,-0.2721,-0.2772,-0.2764,-0.277,-0.273,-0.2722,-0.2716,-0.2697,-0.2706,-0.2699,-0.2778,-0.2778,-0.2778,0,0,-0.2338,-0.2361,-0.2377,-0.242,-0.2442,-0.2434,-0.2485,-0.249,-0.2479,-0.2576,-0.2647,-0.2713,-0.2723,-0.2735,-0.2743,-0.273,-0.269,-0.271,-0.2705,-0.2689,-0.27,-0.2693,-0.2687,-0.2774,-0.2775,-0.2776,0,0,-0.2322,-0.2385,-0.2396,-0.2399,-0.2394,-0.2413,-0.2411,-0.2469,-0.2505,-0.2552,-0.2607,-0.2644,-0.2715,-0.27,-0.2691,-0.2656,-0.2685,-0.266,-0.2566,-0.2575,-0.257,-0.2565,-0.2546,-0.254,-0.2613,-0.2613,-0.2613,0,-0.2314,-0.2338,-0.2394,-0.2382,-0.2375,-0.24,-0.2386,-0.2403,-0.2475,-0.2513,-0.256,-0.2662,-0.2678,-0.2638,-0.2612,-0.2638,-0.2655,-0.261,-0.2569,-0.2564,-0.256,-0.2542,-0.2535,-0.261,-0.2611,-0.2611,-0.2611,0,-0.2283,-0.2296,-0.2299,-0.2303,-0.2314,-0.2299,-0.2305,-0.2351,-0.2408,-0.2439,-0.2499,-0.2546,-0.2594,-0.2578,-0.2581,-0.2532,-0.2559,-0.26,-0.2602,-0.255,-0.2533,-0.2527,-0.2607,-0.2608,-0.2609,-0.2609,0,0,-0.2273,-0.2283,-0.2277,-0.2274,-0.227,-0.2279,-0.2268,-0.2294,-0.2315,-0.2376,-0.2425,-0.2418,-0.2481,-0.2468,-0.2479,-0.2444,-0.2411,-0.2489,-0.2491,-0.2483,-0.2426,-0.2314,-0.2298,-0.2473,-0.2472,-0.2471,-0.2421,0,-0.2228,-0.2205,-0.2225,-0.2191,-0.2185,-0.2218,-0.2224,-0.224,-0.2297,-0.2363,-0.2361,-0.2416,-0.2413,-0.2446,-0.2408,-0.2452,-0.2397,-0.2419,-0.2462,-0.2462,-0.2382,-0.2287,-0.2119,-0.205,-0.2416,-0.2415,-0.2414,0,-0.2176,-0.2174,-0.2148,-0.2171,-0.2181,-0.2165,-0.2225,-0.2224,-0.2272,-0.2329,-0.2357,-0.2409,-0.236,-0.2386,-0.2356,-0.2388,-0.2379,-0.2387,-0.2387,-0.2289,-0.2338,-0.2161,-0.2026,-0.2405,-0.2406,-0.2406,-0.2407,0,-0.213,-0.2123,-0.2116,-0.2106,-0.2128,-0.2149,-0.2173,-0.2225,-0.2254,-0.2301,-0.2355,-0.235,-0.2362,-0.2356,-0.2338,-0.2372,-0.2322,-0.2381,-0.2254,-0.2247,-0.2107,-0.2087,-0.2333,-0.2333,-0.2333,-0.2333,-0.2333,0,-0.2068,-0.2057,-0.2095,-0.207,-0.2091,-0.2123,-0.2155,-0.2194,-0.225,-0.2269,-0.2323,-0.2328,-0.2364,-0.235,-0.2334,-0.2248,-0.2311,-0.2201,-0.2212,-0.2083,-0.2063,-0.2385,-0.2392,-0.2331,-0.2332,-0.2332,-0.2333,0,-0.2,-0.2017,-0.2006,-0.2039,-0.2055,-0.2068,-0.2131,-0.215,-0.2218,-0.2244,-0.2258,-0.2313,-0.2274,-0.2276,-0.226,-0.2224,-0.2174,-0.2125,-0.1945,-0.1933,-0.2097,-0.2102,-0.1987,-0.1982,-0.1978,-0.1975,-0.1972,0,-0.196,-0.1941,-0.1971,-0.1971,-0.198,-0.2013,-0.2029,-0.2111,-0.2131,-0.2208,-0.2204,-0.2206,-0.2154,-0.208,-0.1998,-0.1913,-0.2029,-0.1745,-0.1747,-0.2031,-0.2055,-0.2067,-0.2077,-0.155,-0.1544,-0.1539,-0.1535,0,-0.1876,-0.1894,-0.1892,-0.1889,-0.19,-0.1924,-0.1954,-0.1978,-0.2057,-0.2073,-0.2069,-0.2039,-0.1945,-0.1771,-0.167,-0.1611,-0.1748,-0.164,-0.1981,-0.1659,-0.1613,-0.164,-0.1665,-0.1491,-0.1496,-0.1499,-0.1501,-0.1503,-0.1822,-0.1809,-0.1805,-0.1801,-0.1814,-0.1815,-0.1785,-0.1817,-0.1821,-0.1806,-0.1881,-0.1772,-0.1723,-0.1457,-0.135,-0.1272,-0.1405,-0.1384,-0.1402,-0.1425,-0.1378,-0.1327,-0.1142,-0.1144,-0.1146,-0.1148,-0.1149,0,-0.1733,-0.1723,-0.1713,-0.1696,-0.166,-0.1704,-0.1705,-0.1624,-0.1552,-0.1576,-0.1536,-0.1347,-0.1216,-0.1169,-0.0961,-0.0918,-0.0938,-0.0901,-0.0944,-0.0985,-0.1023,-0.096,-0.0611,-0.061,-0.0608,-0.0607,0,0,-0.1682,-0.1632,-0.1624,-0.1538,-0.1521,-0.142,-0.1388,-0.1273,-0.1228,-0.1107,-0.1063,-0.1176,-0.1147,-0.0909,-0.082,-0.0683,-0.0836,-0.0639,-0.1065,-0.1157,-0.1194,-0.1285,-0.1231,0,0,0,0,0]},{"header":{"parameterUnit":"m.s-1","parameterCategory":2,"la1":30.2991,"la2":30.254,"lo1":-89.0895,"lo2":-89.0444,"dy":0.0017,"dx":0.0017,"nx":28,"ny":28,"refTime":"2024-07-06T09:00:00:Z","depth":"2","parameterNumber":3,"parameterNumberName":"V-component_of_CURRENTS"},"data":[0,0,0,0,0,0,0,0,0,0,0,0,0,0,0,0,0,0,0,0,0,0,0,0,0,0,0,0,0,0,0,0,0,0,0,0,0,0,0,0,0,0,0,0,0,0,0,0,0,0,0,0,0,0,0,0,0,0,-0.0475,-0.0474,0,-0.0323,-0.0321,-0.0318,-0.0184,-0.0184,-0.0183,-0.0182,0.0303,0.0315,0.0327,0,0,0,0,0,0,0,0,0,0,0,0,0,-0.0506,-0.0506,-0.0475,-0.0474,-0.0473,-0.0324,-0.0321,-0.0318,-0.0184,-0.0183,-0.0183,-0.0182,0.0299,0.0313,0.0328,0,0,0,0,0,0,0,0,0,0,0,0,0,-0.043,-0.0506,-0.0475,-0.0394,-0.0386,-0.0324,-0.0321,-0.0317,-0.0185,-0.0183,-0.0182,-0.0181,0.0294,0.0312,0.033,0.0418,0,0,0.0386,0.0394,0,0,0,0,0,0,0,0,-0.0434,-0.0428,-0.0407,-0.04,-0.0391,-0.0279,-0.0154,-0.0057,-0.0185,-0.0253,-0.0182,-0.0181,0.0133,0.0165,0.0197,0.0441,0.0462,0.0387,0.0398,0.0406,0.0411,0,0,0,0,0,0,0,-0.044,-0.0433,-0.0407,-0.0407,-0.0396,-0.0317,-0.0305,-0.0135,-0.0056,-0.0247,-0.0239,-0.0235,0.0141,0.0179,0.0211,0.0469,0.0387,0.0403,0.0414,0.0421,0.0891,0.0892,0,0,0,0,0,0,-0.0484,-0.0439,-0.0412,-0.0403,-0.0419,-0.0319,-0.0305,-0.0309,-0.0064,-0.0031,-0.0236,-0.023,0.0147,0.0189,0.0229,0.0392,0.0406,0.0423,0.0434,0.0889,0.0891,0.0893,0,0,0,0,0,0,-0.0486,-0.0484,-0.0418,-0.0423,-0.041,-0.0321,-0.0326,-0.0307,-0.0262,-0.0062,-0.002,-0.0211,0.015,0.0203,0.0386,0.0411,0.0431,0.0448,0.0887,0.089,0.0892,0.0694,0,0,0,0,0,0,-0.0487,-0.0485,-0.0501,-0.0427,-0.0412,-0.0389,-0.0327,-0.0305,-0.0266,-0.0255,-0.0026,0.0019,0.0155,0.0357,0.0404,0.0437,0.0462,0.0886,0.0889,0.0891,0.0698,0.0689,0.0681,0,0,0,0,0,-0.0489,-0.0516,-0.0503,-0.0499,-0.0438,-0.039,-0.0374,-0.03,-0.0267,-0.0253,-0.0093,0.0012,0.0409,0.0373,0.0427,0.0466,0.0884,0.0888,0.0891,0.0702,0.0691,0.0681,0,0,0,0,0,0,-0.0531,-0.0504,-0.0487,-0.0503,-0.0458,-0.0371,-0.0354,-0.0309,-0.018,-0.0155,0.0037,0.0094,0.0284,0.0395,0.035,0.0612,0.0664,0.0678,0.0502,0.0493,0.0484,0.0373,0.0477,0,0,0,0,0,-0.0556,-0.0571,-0.0522,-0.0534,-0.0515,-0.0437,-0.0409,-0.0364,-0.0251,-0.0196,-0.0033,0.0151,0.0338,0.0423,0.0615,0.0738,0.0786,0.08,0.0791,0.0782,0.0731,0.081,0.0801,0.0904,0.0904,0.0904,0,0,-0.0577,-0.0565,-0.0572,-0.0545,-0.0497,-0.0467,-0.0413,-0.0381,-0.0343,-0.0154,-0.0022,0.0155,0.0376,0.0533,0.0622,0.0621,0.0783,0.0787,0.0777,0.073,0.0812,0.0801,0.0791,0.0906,0.0906,0.0906,0,0,-0.0608,-0.0612,-0.062,-0.059,-0.0547,-0.05,-0.0498,-0.0406,-0.0352,-0.0226,-0.0061,0.007,0.0367,0.0477,0.0585,0.0632,0.0762,0.0748,0.0583,0.0661,0.065,0.0642,0.0679,0.0676,0.0706,0.0706,0.0705,0,-0.0631,-0.0635,-0.0613,-0.06,-0.0578,-0.052,-0.0502,-0.0446,-0.0304,-0.025,-0.0199,0.0164,0.0316,0.0482,0.0482,0.0603,0.0676,0.0596,0.0639,0.0632,0.0627,0.0668,0.0666,0.0697,0.0698,0.0699,0.0699,0,-0.0654,-0.065,-0.065,-0.0619,-0.0595,-0.0576,-0.0512,-0.0461,-0.0389,-0.0317,-0.014,0.0034,0.0228,0.0306,0.0404,0.0472,0.0548,0.064,0.0637,0.0602,0.0651,0.0652,0.0684,0.0687,0.069,0.0692,0,0,-0.0714,-0.0674,-0.0674,-0.0656,-0.0605,-0.0587,-0.0538,-0.0469,-0.043,-0.0313,-0.0241,-0.003,0.0035,0.0152,0.0293,0.0306,0.03,0.0424,0.0433,0.0407,0.0466,0.0482,0.0487,0.0427,0.0426,0.0426,0.0508,0,-0.0728,-0.0719,-0.0693,-0.0671,-0.0651,-0.0597,-0.0556,-0.0495,-0.0413,-0.0328,-0.0219,-0.007,-0.0008,0.0079,0.0098,0.0306,0.0301,0.0267,0.0549,0.0554,0.053,0.0487,0.0483,0.0554,0.051,0.051,0.0511,0,-0.0753,-0.074,-0.0725,-0.0685,-0.0673,-0.0658,-0.0595,-0.0553,-0.0447,-0.038,-0.0286,-0.0156,-0.009,-0.0039,0.0139,0.014,0.0249,0.0351,0.036,0.0432,0.0573,0.0594,0.056,0.0515,0.0514,0.0514,0.0514,0,-0.0795,-0.0766,-0.0758,-0.0744,-0.0688,-0.0674,-0.0649,-0.0564,-0.0526,-0.0423,-0.0372,-0.0242,-0.0157,-0.0026,0.0144,0.0173,0.0331,0.0421,0.0517,0.052,0.059,0.06,0.0487,0.0487,0.0487,0.0487,0.0487,0,-0.0813,-0.0808,-0.0782,-0.0769,-0.0774,-0.0722,-0.0704,-0.0655,-0.0579,-0.0525,-0.0415,-0.0333,-0.0147,-0.0015,0.0122,0.0307,0.032,0.0448,0.0533,0.0525,0.0528,0.0565,0.0573,0.049,0.0489,0.0489,0.0488,0,-0.0841,-0.0822,-0.0817,-0.0785,-0.0787,-0.0793,-0.0767,-0.0748,-0.0668,-0.0596,-0.0568,-0.0395,-0.0218,-0.0055,0.0178,0.0292,0.0461,0.052,0.0464,0.0538,0.06,0.0597,0.0634,0.0635,0.0636,0.0637,0.0638,0,-0.085,-0.0844,-0.0849,-0.0871,-0.086,-0.0864,-0.0868,-0.0806,-0.0774,-0.0613,-0.0578,-0.0402,-0.0248,0.0051,0.027,0.0482,0.0486,0.0594,0.0613,0.053,0.061,0.0607,0.0603,0.0637,0.0637,0.0638,0.0638,0,-0.0857,-0.0865,-0.0868,-0.0923,-0.0947,-0.0961,-0.0951,-0.094,-0.0835,-0.0744,-0.0576,-0.0441,-0.0143,0.0123,0.0368,0.0493,0.0555,0.061,0.0573,0.059,0.0538,0.0615,0.0611,0.0642,0.0642,0.0642,0.0641,0.0641,-0.0876,-0.0901,-0.0926,-0.0983,-0.102,-0.1044,-0.1054,-0.0997,-0.0929,-0.0765,-0.0607,-0.0373,-0.0104,0.0264,0.0462,0.0624,0.0625,0.0685,0.0682,0.0679,0.0655,0.0606,0.0716,0.0716,0.0716,0.0716,0.0716,0,-0.0889,-0.0928,-0.0986,-0.105,-0.111,-0.1108,-0.11,-0.1068,-0.0975,-0.0774,-0.0591,-0.0273,0.003,0.0274,0.0566,0.0744,0.073,0.0747,0.0719,0.0714,0.071,0.0686,0.0757,0.0757,0.0758,0.0758,0,0,-0.09,-0.0952,-0.0994,-0.1115,-0.1167,-0.1217,-0.1215,-0.1113,-0.0972,-0.075,-0.0549,-0.0308,0.0038,0.0253,0.0481,0.0634,0.0613,0.0626,0.0578,0.0514,0.0507,0.0662,0.0617,0,0,0,0,0]}],[{"header":{"parameterUnit":"m.s-1","parameterCategory":2,"la1":30.2991,"la2":30.254,"lo1":-89.0895,"lo2":-89.0444,"dy":0.0017,"dx":0.0017,"nx":28,"ny":28,"refTime":"2024-07-06T09:00:00:Z","depth":"4","parameterNumber":2,"parameterNumberName":"U-component_of_CURRENTS"},"data":[0,0,0,0,0,0,0,0,0,0,0,0,0,0,0,0,0,0,0,0,0,0,0,0,0,0,0,0,0,0,0,0,0,0,0,0,0,0,0,0,0,0,0,0,0,0,0,0,0,0,0,0,0,0,0,0,0,0,-0.14,-0.14,0,-0.1416,-0.1417,-0.1417,-0.1444,-0.1444,-0.1445,-0.1445,-0.1476,-0.1477,-0.1477,0,0,0,0,0,0,0,0,0,0,0,0,0,-0.1399,-0.1399,-0.14,-0.14,-0.14,-0.1416,-0.1417,-0.1417,-0.1444,-0.1444,-0.1445,-0.1445,-0.1476,-0.1477,-0.1477,0,0,0,0,0,0,0,0,0,0,0,0,0,-0.1407,-0.1399,-0.14,-0.1414,-0.1416,-0.1416,-0.1417,-0.1417,-0.1444,-0.1444,-0.1445,-0.1445,-0.1476,-0.1477,-0.1477,-0.1471,0,0,-0.148,-0.148,0,0,0,0,0,0,0,0,-0.1406,-0.1407,-0.1412,-0.1413,-0.1415,-0.1427,-0.1427,-0.1436,-0.1444,-0.1435,-0.1445,-0.1446,-0.146,-0.1462,-0.1466,-0.1473,-0.1474,-0.148,-0.148,-0.148,-0.1481,0,0,0,0,0,0,0,-0.1406,-0.1407,-0.1408,-0.1412,-0.1414,-0.1422,-0.1424,-0.1429,-0.1446,-0.1436,-0.1437,-0.1436,-0.1461,-0.1465,-0.1467,-0.1475,-0.148,-0.148,-0.1481,-0.1481,-0.1549,-0.155,0,0,0,0,0,0,-0.14,-0.1406,-0.1408,-0.1409,-0.141,-0.1421,-0.1424,-0.1424,-0.1445,-0.1449,-0.1436,-0.1437,-0.1464,-0.1466,-0.1468,-0.1527,-0.148,-0.1481,-0.1482,-0.1548,-0.1549,-0.1551,0,0,0,0,0,0,-0.14,-0.14,-0.1407,-0.1406,-0.1408,-0.1421,-0.1421,-0.1424,-0.1449,-0.1445,-0.1449,-0.146,-0.1464,-0.1467,-0.1503,-0.1526,-0.1482,-0.1482,-0.1546,-0.1548,-0.155,-0.1604,0,0,0,0,0,0,-0.1399,-0.14,-0.141,-0.1406,-0.1407,-0.1427,-0.1421,-0.1424,-0.1445,-0.1448,-0.1466,-0.1468,-0.1465,-0.1502,-0.1504,-0.1526,-0.1483,-0.1544,-0.1547,-0.1549,-0.1601,-0.1608,-0.1614,0,0,0,0,0,-0.1399,-0.1405,-0.1411,-0.1411,-0.1417,-0.1428,-0.1431,-0.1442,-0.1446,-0.1465,-0.1483,-0.1469,-0.1519,-0.1504,-0.1506,-0.1529,-0.1543,-0.1546,-0.1549,-0.1598,-0.1606,-0.1614,0,0,0,0,0,0,-0.1409,-0.1408,-0.1414,-0.142,-0.1434,-0.1432,-0.1449,-0.1454,-0.1481,-0.1493,-0.1488,-0.1492,-0.1525,-0.1525,-0.1508,-0.1557,-0.1528,-0.1531,-0.1564,-0.1572,-0.1579,-0.1603,-0.1483,0,0,0,0,0,-0.1415,-0.1418,-0.1425,-0.1431,-0.1443,-0.1451,-0.146,-0.1471,-0.1486,-0.1499,-0.1506,-0.1521,-0.1535,-0.1554,-0.1558,-0.1592,-0.1585,-0.1608,-0.1615,-0.1621,-0.1643,-0.1652,-0.1662,-0.1561,-0.1561,-0.1561,0,0,-0.1416,-0.1417,-0.1419,-0.1433,-0.1446,-0.1466,-0.146,-0.1484,-0.1512,-0.1498,-0.1541,-0.1539,-0.1547,-0.158,-0.1596,-0.1589,-0.1642,-0.1625,-0.1629,-0.1649,-0.1656,-0.1666,-0.1675,-0.1563,-0.1562,-0.1562,0,0,-0.1414,-0.143,-0.1435,-0.1451,-0.1476,-0.149,-0.1502,-0.1519,-0.1547,-0.158,-0.1577,-0.1604,-0.1617,-0.1637,-0.1646,-0.1696,-0.1668,-0.1689,-0.1755,-0.1764,-0.1772,-0.178,-0.1767,-0.1773,-0.1704,-0.1704,-0.1704,0,-0.142,-0.143,-0.1441,-0.1454,-0.1481,-0.1504,-0.1534,-0.1559,-0.1585,-0.1619,-0.1604,-0.1647,-0.1648,-0.1704,-0.1723,-0.1712,-0.1703,-0.1722,-0.1773,-0.178,-0.1786,-0.1772,-0.1778,-0.1707,-0.1707,-0.1707,-0.1706,0,-0.1417,-0.1441,-0.1451,-0.1481,-0.1511,-0.1544,-0.1583,-0.1625,-0.1654,-0.1673,-0.1731,-0.1736,-0.1766,-0.1766,-0.1762,-0.1817,-0.1789,-0.1768,-0.1751,-0.18,-0.1781,-0.1786,-0.1711,-0.171,-0.1709,-0.1709,0,0,-0.1398,-0.1443,-0.1452,-0.1485,-0.154,-0.1566,-0.1632,-0.1703,-0.1751,-0.1779,-0.1836,-0.1868,-0.187,-0.1883,-0.1879,-0.1899,-0.1927,-0.1864,-0.1863,-0.185,-0.1932,-0.1772,-0.1762,-0.191,-0.1912,-0.1913,-0.1894,0,-0.1407,-0.1442,-0.1473,-0.1534,-0.1566,-0.163,-0.1688,-0.1754,-0.1804,-0.1858,-0.1895,-0.1928,-0.1915,-0.1927,-0.1952,-0.1928,-0.1946,-0.1933,-0.189,-0.1889,-0.1739,-0.1765,-0.1919,-0.1898,-0.1899,-0.19,-0.19,0,-0.1394,-0.1431,-0.1488,-0.158,-0.1605,-0.1651,-0.1772,-0.1823,-0.1909,-0.1946,-0.1999,-0.2006,-0.2057,-0.202,-0.2037,-0.2027,-0.1996,-0.1974,-0.1972,-0.1813,-0.1739,-0.1843,-0.1909,-0.1908,-0.1908,-0.1907,-0.1907,0,-0.1369,-0.1446,-0.1503,-0.153,-0.1628,-0.1691,-0.1756,-0.1852,-0.1906,-0.1995,-0.2022,-0.2083,-0.2089,-0.2092,-0.2048,-0.2046,-0.2036,-0.2019,-0.1853,-0.184,-0.1967,-0.1959,-0.2034,-0.2034,-0.2034,-0.2034,-0.2034,0,-0.1352,-0.1401,-0.15,-0.1528,-0.1618,-0.1688,-0.1785,-0.1857,-0.1945,-0.1982,-0.2056,-0.2067,-0.2106,-0.2096,-0.207,-0.1962,-0.2051,-0.1869,-0.1829,-0.1987,-0.1982,-0.1969,-0.1962,-0.2033,-0.2034,-0.2034,-0.2034,0,-0.1299,-0.1358,-0.1432,-0.1557,-0.1599,-0.1661,-0.1787,-0.1835,-0.193,-0.1975,-0.1998,-0.2059,-0.2022,-0.2036,-0.2012,-0.195,-0.189,-0.1831,-0.1993,-0.1961,-0.1687,-0.1684,-0.1651,-0.1646,-0.1641,-0.1637,-0.1633,0,-0.1269,-0.1299,-0.1439,-0.1478,-0.1538,-0.1636,-0.1689,-0.1811,-0.1844,-0.1935,-0.1929,-0.1941,-0.1952,-0.1806,-0.1832,-0.177,-0.1743,-0.1721,-0.1723,-0.1686,-0.1651,-0.1655,-0.1657,-0.1626,-0.1624,-0.1623,-0.1622,0,-0.1228,-0.1288,-0.1352,-0.1427,-0.1493,-0.1561,-0.164,-0.1657,-0.1759,-0.1855,-0.1806,-0.1775,-0.1721,-0.1686,-0.164,-0.1602,-0.1747,-0.1671,-0.1681,-0.1682,-0.1655,-0.1625,-0.1633,-0.1605,-0.1607,-0.1609,-0.161,0,-0.1204,-0.1236,-0.1313,-0.1365,-0.1435,-0.1454,-0.1518,-0.1536,-0.1584,-0.1676,-0.1641,-0.165,-0.1691,-0.1594,-0.1556,-0.1498,-0.1474,-0.1448,-0.147,-0.1488,-0.1439,-0.1382,-0.1216,0,0,0,0,0,-0.1172,-0.1189,-0.1237,-0.1283,-0.1338,-0.1369,-0.1463,-0.1519,-0.1608,-0.1528,-0.1584,-0.1521,-0.1443,-0.1454,-0.1353,-0.147,-0.1484,-0.1349,-0.1469,-0.1512,-0.1531,-0.1486,0,0,0,0,0,0,-0.1153,-0.1203,-0.1211,-0.1189,-0.1186,-0.1233,-0.1284,-0.1346,-0.1316,-0.1404,-0.1364,-0.1423,-0.1366,-0.1457,-0.1314,-0.1315,-0.136,-0.136,-0.1356,-0.1501,-0.1518,-0.1534,-0.1494,0,0,0,0,0]},{"header":{"parameterUnit":"m.s-1","parameterCategory":2,"la1":30.2991,"la2":30.254,"lo1":-89.0895,"lo2":-89.0444,"dy":0.0017,"dx":0.0017,"nx":28,"ny":28,"refTime":"2024-07-06T09:00:00:Z","depth":"4","parameterNumber":3,"parameterNumberName":"V-component_of_CURRENTS"},"data":[0,0,0,0,0,0,0,0,0,0,0,0,0,0,0,0,0,0,0,0,0,0,0,0,0,0,0,0,0,0,0,0,0,0,0,0,0,0,0,0,0,0,0,0,0,0,0,0,0,0,0,0,0,0,0,0,0,0,-0.0422,-0.0423,0,-0.0403,-0.0403,-0.0402,-0.0359,-0.0358,-0.0358,-0.0357,-0.028,-0.0278,-0.0277,0,0,0,0,0,0,0,0,0,0,0,0,0,-0.0377,-0.0378,-0.0422,-0.0423,-0.0423,-0.0403,-0.0403,-0.0402,-0.0359,-0.0358,-0.0358,-0.0357,-0.028,-0.0278,-0.0277,0,0,0,0,0,0,0,0,0,0,0,0,0,-0.0378,-0.0378,-0.0422,-0.0402,-0.04,-0.0403,-0.0403,-0.0402,-0.0359,-0.0358,-0.0358,-0.0357,-0.0281,-0.0279,-0.0276,-0.0279,0,0,-0.0269,-0.0268,0,0,0,0,0,0,0,0,-0.0378,-0.0379,-0.0405,-0.0403,-0.0401,-0.0386,-0.0358,-0.0359,-0.0359,-0.0371,-0.0357,-0.0356,-0.0313,-0.0308,-0.0302,-0.0275,-0.0272,-0.0269,-0.0268,-0.0267,-0.0266,0,0,0,0,0,0,0,-0.0378,-0.0379,-0.0411,-0.0405,-0.0403,-0.0378,-0.0377,-0.0358,-0.0343,-0.037,-0.0367,-0.0371,-0.0311,-0.0304,-0.0299,-0.0271,-0.0269,-0.0267,-0.0266,-0.0265,-0.021,-0.021,0,0,0,0,0,0,-0.0391,-0.038,-0.0412,-0.0411,-0.0391,-0.038,-0.0379,-0.0389,-0.0344,-0.0338,-0.0372,-0.0369,-0.0308,-0.0302,-0.0297,-0.0265,-0.0267,-0.0264,-0.0263,-0.021,-0.021,-0.021,0,0,0,0,0,0,-0.039,-0.0394,-0.0413,-0.0397,-0.0398,-0.0382,-0.0393,-0.0389,-0.0388,-0.0347,-0.0339,-0.0377,-0.0308,-0.03,-0.0273,-0.0263,-0.0263,-0.0261,-0.021,-0.021,-0.021,-0.0223,0,0,0,0,0,0,-0.0389,-0.0394,-0.0409,-0.0399,-0.04,-0.0418,-0.0394,-0.0389,-0.0393,-0.0389,-0.0349,-0.034,-0.0306,-0.0276,-0.027,-0.026,-0.0259,-0.021,-0.021,-0.021,-0.0222,-0.0223,-0.0224,0,0,0,0,0,-0.0388,-0.0413,-0.041,-0.0414,-0.042,-0.0418,-0.0416,-0.0399,-0.0394,-0.0395,-0.0361,-0.0342,-0.0271,-0.0275,-0.0268,-0.0256,-0.021,-0.021,-0.021,-0.0222,-0.0223,-0.0224,0,0,0,0,0,0,-0.0403,-0.0411,-0.0407,-0.0435,-0.0428,-0.0412,-0.0417,-0.041,-0.0387,-0.0383,-0.0342,-0.0331,-0.0309,-0.0284,-0.0289,-0.0241,-0.0238,-0.0236,-0.0249,-0.025,-0.0251,-0.0223,-0.0258,0,0,0,0,0,-0.0415,-0.0435,-0.0431,-0.0453,-0.0451,-0.0438,-0.0438,-0.0428,-0.0408,-0.0398,-0.0368,-0.0334,-0.0304,-0.0279,-0.0258,-0.0228,-0.0181,-0.0217,-0.0217,-0.0218,-0.0191,-0.0092,-0.008,-0.021,-0.021,-0.021,0,0,-0.043,-0.0436,-0.0449,-0.0457,-0.045,-0.0446,-0.0434,-0.044,-0.0426,-0.0393,-0.0366,-0.0346,-0.0303,-0.0269,-0.0256,-0.0242,-0.0168,-0.0218,-0.0219,-0.019,-0.009,-0.0077,-0.0065,-0.021,-0.021,-0.021,0,0,-0.0457,-0.047,-0.0487,-0.0483,-0.0482,-0.0467,-0.0473,-0.0459,-0.044,-0.0425,-0.0391,-0.0349,-0.0325,-0.0263,-0.0235,-0.0225,-0.0188,-0.0242,-0.0201,-0.0106,-0.0094,-0.0082,-0.0052,-0.0037,-0.0224,-0.0224,-0.0224,0,-0.047,-0.049,-0.0491,-0.0497,-0.0493,-0.0478,-0.0479,-0.0459,-0.0436,-0.0407,-0.042,-0.0337,-0.0308,-0.0223,-0.0219,-0.0221,-0.0188,-0.0203,-0.0104,-0.0091,-0.0078,-0.005,-0.0033,-0.0225,-0.0225,-0.0225,-0.0225,0,-0.05,-0.0511,-0.052,-0.0517,-0.0512,-0.0515,-0.0487,-0.047,-0.0456,-0.0424,-0.0365,-0.0315,-0.0253,-0.0247,-0.0229,-0.0129,-0.0146,-0.013,-0.0097,-0.0065,-0.0039,-0.0021,-0.0226,-0.0226,-0.0225,-0.0225,0,0,-0.0533,-0.0538,-0.0542,-0.0536,-0.0522,-0.052,-0.0489,-0.0444,-0.0411,-0.0376,-0.0318,-0.0252,-0.022,-0.0185,-0.015,-0.0059,0.0032,-0.0058,-0.0053,-0.0021,0.0198,0.013,0.0142,0.0067,0.0071,0.0074,0.0164,0,-0.0548,-0.0564,-0.0559,-0.0558,-0.0555,-0.0524,-0.0495,-0.0452,-0.041,-0.0352,-0.0267,-0.0217,-0.0198,-0.0174,-0.0075,-0.0001,0.0085,0.0004,0.0157,0.0161,0.0106,0.0164,0.0087,0.0177,0.0182,0.0185,0.0187,0,-0.0573,-0.0576,-0.0584,-0.0564,-0.0559,-0.0556,-0.0497,-0.047,-0.0374,-0.034,-0.025,-0.02,-0.0073,-0.0071,0.0122,0.0063,0.0137,0.02,0.0205,0.0172,0.013,0.0152,0.0219,0.0217,0.0214,0.0212,0.021,0,-0.0587,-0.0591,-0.0596,-0.0593,-0.0568,-0.0558,-0.0541,-0.0466,-0.043,-0.0329,-0.029,-0.0146,-0.0081,0.0058,0.0158,0.0154,0.035,0.0362,0.0377,0.037,0.0408,0.0395,0.0527,0.0527,0.0527,0.0526,0.0526,0,-0.0594,-0.06,-0.0609,-0.0609,-0.0613,-0.0586,-0.0563,-0.0521,-0.0444,-0.0385,-0.0287,-0.0207,-0.0039,0.0076,0.0177,0.0309,0.0369,0.0405,0.0414,0.0388,0.0373,0.0417,0.0403,0.053,0.0529,0.0528,0.0528,0,-0.06,-0.0607,-0.0619,-0.0615,-0.0622,-0.0628,-0.0609,-0.058,-0.0504,-0.0423,-0.0392,-0.0235,-0.009,0.0042,0.025,0.032,0.0454,0.0484,0.0401,0.0398,0.0405,0.0389,0.0544,0.0543,0.0542,0.0541,0.0541,0,-0.0603,-0.0609,-0.0643,-0.0667,-0.0673,-0.068,-0.0681,-0.0624,-0.0584,-0.0433,-0.0388,-0.0239,-0.0133,0.0091,0.0234,0.0406,0.0432,0.0489,0.0512,0.0427,0.042,0.0405,0.039,0.0539,0.0539,0.0539,0.0539,0,-0.0602,-0.0626,-0.0642,-0.0699,-0.0726,-0.0737,-0.0728,-0.0701,-0.0604,-0.0533,-0.0373,-0.0233,-0.008,0.0089,0.0192,0.033,0.0452,0.0481,0.0485,0.0507,0.0423,0.0413,0.04,0.0535,0.0536,0.0536,0.0536,0,-0.0615,-0.0642,-0.0683,-0.0729,-0.0772,-0.0783,-0.077,-0.0706,-0.0654,-0.048,-0.0428,-0.0242,-0.0119,0.0051,0.0164,0.0262,0.0318,0.037,0.0381,0.0386,0.0305,0.0173,0.0243,0,0,0,0,0,-0.0619,-0.0658,-0.0709,-0.0763,-0.0804,-0.0827,-0.0794,-0.0759,-0.0662,-0.0562,-0.049,-0.0346,-0.0129,-0.0021,0.0069,0.0138,0.0311,0.0247,0.0369,0.0518,0.0522,0.0448,0,0,0,0,0,0,-0.0629,-0.0679,-0.0712,-0.0783,-0.0827,-0.086,-0.0845,-0.0777,-0.0705,-0.0588,-0.0483,-0.0348,-0.0161,-0.0211,0.0054,0.0094,0.0184,0.0364,0.0366,0.0516,0.0519,0.0522,0.0448,0,0,0,0,0]}]]